Location: Kershaw
(34.5481°N, 80.5823°W)
Time: 21:31:46
(UTC+00:00)

Transit 4A - Pass Details

Date: 07 October 2022
Orbit: 871 x 972 km, 66.8° (Epoch: 01 December)

Event Time Altitude Azimuth Distance (km) Brightness Sun altitude
Rises 02:13:52 0° 210° (SSW) 3,616 - -40.0°
Reaches altitude 10° 02:16:26 10° 212° (SSW) 2,661 - -40.5°
Maximum altitude 02:22:37 73° 297° (WNW) 974 - -41.6°
Drops below altitude 10° 02:28:41 10° 22° (NNE) 2,605 - -42.7°
Sets 02:31:11 0° 25° (NNE) 3,534 - -43.2°
